TimeAKDT,TemperatureF,Dew PointF,Humidity,Sea Level PressureIn,VisibilityMPH,Wind Direction,Wind SpeedMPH,Gust SpeedMPH,PrecipitationIn,Events,Conditions,WindDirDegrees,DateUTC
12:53 AM,26.1,5.0,41,29.63,10.0,North,12.7,19.6,N/A,,Mostly Cloudy,360,2012-11-02 08:53:00
1:53 AM,26.1,5.0,41,29.61,10.0,North,10.4,20.7,N/A,,Mostly Cloudy,360,2012-11-02 09:53:00
2:53 AM,26.1,6.1,43,29.57,10.0,North,12.7,-,N/A,,Mostly Cloudy,350,2012-11-02 10:53:00
3:53 AM,26.1,6.1,43,29.53,10.0,North,12.7,-,N/A,,Mostly Cloudy,350,2012-11-02 11:53:00
4:53 AM,26.1,3.9,39,29.51,10.0,North,8.1,-,N/A,,Mostly Cloudy,360,2012-11-02 12:53:00
5:53 AM,26.1,7.0,44,29.47,10.0,North,11.5,-,N/A,,Mostly Cloudy,350,2012-11-02 13:53:00
6:53 AM,26.1,6.1,43,29.44,10.0,North,8.1,-,N/A,,Mostly Cloudy,360,2012-11-02 14:53:00
7:53 AM,28.0,8.1,43,29.40,10.0,North,13.8,-,N/A,,Mostly Cloudy,350,2012-11-02 15:53:00
8:53 AM,28.9,8.1,41,29.37,10.0,North,11.5,-,N/A,,Mostly Cloudy,350,2012-11-02 16:53:00
9:53 AM,30.0,7.0,38,29.35,10.0,North,15.0,-,N/A,,Mostly Cloudy,360,2012-11-02 17:53:00
10:53 AM,30.0,6.1,36,29.32,10.0,North,12.7,19.6,N/A,,Mostly Cloudy,350,2012-11-02 18:53:00
11:53 AM,30.9,6.1,35,29.31,10.0,North,11.5,-,N/A,,Overcast,350,2012-11-02 19:53:00
12:53 PM,30.9,3.9,32,29.29,10.0,North,11.5,-,N/A,,Overcast,360,2012-11-02 20:53:00
1:53 PM,33.1,5.0,31,29.26,10.0,North,8.1,-,N/A,,Overcast,10,2012-11-02 21:53:00
2:53 PM,34.0,5.0,30,29.25,10.0,North,11.5,-,N/A,,Mostly Cloudy,350,2012-11-02 22:53:00
3:53 PM,34.0,5.0,30,29.23,10.0,North,11.5,19.6,N/A,,Overcast,10,2012-11-02 23:53:00
4:53 PM,34.0,7.0,32,29.27,10.0,North,8.1,-,N/A,,Mostly Cloudy,10,2012-11-03 00:53:00
5:53 PM,33.1,9.0,37,29.29,10.0,North,8.1,-,N/A,,Mostly Cloudy,10,2012-11-03 01:53:00
6:53 PM,30.9,10.0,42,29.30,10.0,NNE,4.6,-,N/A,,Mostly Cloudy,20,2012-11-03 02:53:00
7:53 PM,28.9,10.9,47,29.30,10.0,WNW,3.5,-,N/A,,Mostly Cloudy,300,2012-11-03 03:53:00
8:53 PM,28.9,16.0,58,29.32,10.0,North,8.1,-,N/A,,Mostly Cloudy,10,2012-11-03 04:53:00
9:53 PM,30.0,15.1,54,29.32,10.0,North,6.9,-,N/A,,Mostly Cloudy,350,2012-11-03 05:53:00
10:53 PM,30.0,14.0,51,29.33,10.0,NNE,6.9,-,N/A,,Scattered Clouds,30,2012-11-03 06:53:00
11:53 PM,30.0,12.0,47,29.34,10.0,NNE,6.9,-,N/A,,Partly Cloudy,30,2012-11-03 07:53:00